Connexion S'enregistrer

Connexion à votre compte

Identifiant
Mot de passe
Maintenir la connexion active sur ce site

Créer un compte

Pour valider ce formulaire, vous devez remplir tous les champs.
Nom
Identifiant
Mot de passe
Répétez le mot de passe
Adresse e-mail
Répétez l'adresse e-mail
Captcha

Veuillez saisir l'adresse e-mail associée à votre compte d'utilisateur. Votre identifiant vous sera envoyé à cette adresse.

Nous contacter

 Téléphone : +33 (0)4 79 54 41 81

Coordonnées détaillées et accès : cliquez ici

facebook 770688 960 720  logo instagram large

[source: ADDS]
METAR / TAF
LFLB 081030Z AUTO 35009KT 310V010 CAVOK 28/16 Q1018 NOSIG =
TAF LFLB 080800Z 0809/0909 36008KT CAVOK

SR / SS: 04:28 / 18:55 UTC (Lever/Coucher du soleil le 2022-08-08)
JSN Boot template designed by JoomlaShine.com